Temp
1 2 2 3 3 4 4 3 3 4 4 4 3 4 4 5 5 6 4 5 5 2 3 5 5 5 4 4 5 5 5 4 3 3 4 3 4 6 6 7 7 5 5 3 4 5 5 4 5 5 3 3 3 3
1 1 2 2 3 4 3 4 4 4 4 3 4 4 4 4 5 6 4 5 6 2 3 4 5 6 6 6 3 2 4 4 4 3 3 3 4 1 5 4 5 4 3 3 4 4 4 4 4 4 3 3 3 2
1 1 2 2 2 3 3 4 4 4 4 4 4 3 3 4 4 5 4 5 5 1 2 4 5 6 7 7 7 3 3 4 3 1 -0 1 3 2 2 3 2 5 5 3 4 4 4 4 4 3 3 3 2 2
1 1 1 2 2 2 3 3 3 3 4 4 4 4 3 4 4 5 5 4 4 0 0 4 5 6 7 7 7 7 5 4 2 1 -0 -0 2 3 2 3 1 2 3 2 4 4 4 4 3 2 2 3 2 2
1 1 1 2 2 2 2 3 3 3 3 4 4 3 3 3 3 4 4 4 4 3 1 3 4 6 7 7 6 6 5 2 1 1 -1 1 2 3 3 2 -1 1 1 1 2 2 2 3 3 2 1 1 2 0
1 1 1 1 2 2 2 2 3 3 3 3 3 3 3 3 3 4 -1 4 4 4 0 1 2 4 5 6 5 4 3 0 0 1 0 2 2 3 0 3 4 4 2 0 1 3 3 3 1 1 0 1 0 -2
1 1 1 1 2 2 2 3 3 3 3 3 3 3 3 3 4 2 1 3 4 4 -1 -1 2 3 5 4 3 2 3 1 1 1 1 2 3 2 0 2 4 3 3 2 1 1 1 -1 -2 -1 -1 -1 -1 -2
1 1 1 1 1 2 2 2 3 3 3 2 2 3 3 3 3 3 3 3 4 3 -0 -2 1 2 4 1 3 1 2 2 2 2 1 2 2 2 2 3 4 3 2 3 3 2 -1 -2 -1 -2 -2 -1 -2 -2
1 0 1 1 1 2 2 1 2 3 3 2 2 2 3 3 1 2 2 3 4 3 -1 -2 0 1 3 1 1 1 1 1 1 0 1 1 2 3 3 4 3 5 4 1 -0 -0 -1 -1 -2 -3 -3 -3 -3 -3
1 1 1 1 1 1 2 2 2 3 3 1 1 1 -0 2 2 3 3 -1 -2 -2 -1 -1 -1 -1 3 -0 -1 -2 -1 -0 -1 1 1 1 3 1 0 0 -0 -1 1 1 0 -0 -1 -3 -3 -4 -4 -5 -5 -5
1 1 1 1 1 1 1 1 2 2 1 1 -0 -0 1 2 3 -2 -0 -3 -4 -1 -1 0 -0 1 2 1 -0 -2 0 1 2 3 2 3 2 0 -1 -2 -2 -2 -3 -3 -4 -4 -5 -4 -4 -4 -5 -5 -7 -7
1 1 0 0 1 1 0 0 1 1 0 1 2 1 2 1 -1 -2 -4 -2 0 2 -0 -1 -1 0 2 3 2 1 1 2 3 3 4 2 -2 -3 -2 -3 -4 -3 -4 -4 -5 -5 -6 -6 -6 -7 -7 -8 -9 -9
1 1 0 0 0 0 1 0 1 1 2 3 2 0 -0 -2 -1 -2 -1 1 -1 -1 -1 -1 -1 -0 1 2 1 0 2 2 1 2 1 -2 -2 -3 -3 -4 -4 -5 -5 -5 -6 -6 -7 -8 -9 -9 -9 -9 -9 -9
1 1 0 0 0 0 0 -0 0 2 3 1 1 0 -3 -1 -2 -1 -0 -0 -1 -2 -1 0 -1 0 -1 2 3 2 0 3 -1 0 2 -2 -3 -3 -4 -4 -5 -6 -7 -7 -8 -8 -9 -9 -10 -10 -10 -10 -10 -10
1 1 0 0 0 -0 -0 0 1 3 2 0 0 -2 -1 -4 -4 -4 -3 -3 -1 -3 0 0 1 0 0 0 2 3 3 4 1 2 -4 -5 -3 -4 -5 -5 -6 -8 -9 -10 -10 -10 -10 -9 -9 -10 -10 -10 -10 -10
1 0 -0 0 0 0 -0 -0 0 1 -0 -1 -1 -1 -1 0 0 1 1 1 1 0 -1 0 3 1 3 1 4 4 2 -1 -1 -3 -3 -3 -4 -5 -6 -7 -8 -8 -8 -9 -9 -9 -9 -9 -9 -9 -9 -9 -10 -10
0 -0 -0 0 0 -0 -1 -0 0 1 0 -0 -1 -3 -1 -7 -2 -4 -0 1 -0 -0 -0 3 1 3 1 1 4 2 -1 -5 -3 -3 -7 -6 -7 -8 -8 -8 -8 -8 -8 -8 -8 -8 -8 -8 -8 -8 -8 -9 -9 -9
-0 -0 -0 0 -0 -1 -1 -0 -1 -1 -2 -2 -4 -3 -7 -7 -6 -5 -3 -2 -1 0 1 3 2 3 -1 2 -1 -4 -4 -5 -5 -8 -9 -10 -8 -8 -7 -8 -8 -8 -8 -8 -8 -8 -8 -8 -8 -9 -9 -9 -9 -9
-0 -0 -0 0 0 0 -1 0 0 -1 -3 -6 -4 -6 -8 -6 -4 -5 -7 -4 -2 -1 -0 0 -3 -2 -1 -5 -4 -9 -6 -9 -6 -11 -13 -8 -7 -7 -7 -7 -7 -8 -8 -8 -8 -8 -8 -9 -9 -9 -9 -9 -9 -10
0 1 1 1 1 0 1 -1 1 -2 -4 -2 -5 -6 -7 -8 -8 -8 -8 -4 -1 -1 -2 -3 -4 -6 -5 -9 -10 -8 -8 -7 -6 -7 -10 -12 -7 -7 -7 -7 -7 -8 -8 -8 -8 -8 -9 -9 -9 -9 -9 -9 -10 -10
-0 -0 0 0 0 1 -1 -2 -2 -3 -3 -4 -4 -3 -6 -5 -3 -2 -2 -2 -2 -7 -6 -10 -12 -6 -7 -6 -5 -6 -6 -5 -6 -8 -8 -10 -8 -6 -7 -7 -7 -7 -7 -8 -9 -9 -9 -9 -9 -9 -9 -10 -10 -10
1 -0 0 0 0 0 -1 -1 -2 -2 -2 -3 -3 -2 -6 -5 -6 -7 -4 -4 -7 -9 -10 -11 -7 -7 -7 -8 -7 -5 -5 -5 -5 -6 -6 -7 -12 -10 -8 -7 -7 -8 -8 -8 -8 -9 -9 -9 -9 -9 -10 -10 -10 -10
2 3 2 1 -1 -1 -1 -1 -1 -1 -2 -3 -1 -3 -6 -5 -4 -2 -8 -7 -10 -11 -10 -10 -9 -7 -8 -7 -6 -6 -5 -5 -8 -8 -7 -7 -7 -6 -6 -7 -7 -8 -8 -8 -8 -8 -9 -9 -10 -10 -10 -10 -10 -10
4 -1 -2 -1 -1 -2 -2 -2 0 -0 -2 -2 -2 -2 -2 -3 -4 -6 -6 -11 -12 -9 -11 -11 -8 -8 -7 -7 -10 -8 -7 -6 -8 -8 -7 -8 -9 -9 -7 -8 -8 -8 -8 -8 -9 -9 -9 -9 -10 -10 -10 -10 -10 -10
-0 -2 -3 -2 -3 -3 -1 -1 -1 -1 -2 -2 -1 -3 -4 -5 -7 -8 -7 -9 -7 -10 -11 -9 -8 -7 -9 -12 -11 -8 -7 -6 -8 -9 -9 -7 -9 -11 -10 -10 -9 -9 -9 -9 -9 -9 -9 -10 -10 -10 -10 -10 -10 -11
-4 -5 -2 -4 -4 -2 -2 -2 -2 -2 -2 -2 -3 -5 -7 -8 -6 -6 -5 -10 -12 -11 -10 -9 -9 -10 -10 -7 -10 -9 -8 -6 -6 -9 -9 -8 -8 -9 -12 -13 -11 -11 -10 -10 -10 -10 -10 -10 -10 -10 -10 -11 -11 -11
-3 -5 -4 -2 -2 -1 -3 -4 -2 -4 -5 -3 -6 -7 -8 -6 -7 -6 -9 -11 -10 -8 -7 -7 -7 -7 -8 -9 -7 -7 -7 -6 -6 -7 -8 -8 -8 -8 -7 -9 -11 -10 -11 -11 -11 -11 -11 -11 -11 -11 -11 -11 -12 -12
-5 -5 -4 -6 -5 -5 -5 -6 -5 -5 -4 -4 -6 -7 -7 -6 -5 -9 -10 -6 -5 -6 -7 -7 -6 -6 -6 -7 -7 -8 -9 -8 -9 -9 -10 -10 -10 -9 -9 -10 -10 -11 -11 -12 -12 -12 -12 -12 -12 -11 -12 -12 -12 -12
-6 -7 -6 -7 -9 -9 -8 -5 -6 -8 -8 -8 -8 -8 -8 -10 -12 -11 -7 -7 -7 -7 -8 -9 -9 -7 -7 -8 -8 -8 -8 -9 -10 -17 -18 -20 -14 -12 -12 -12 -12 -12 -12 -12 -13 -13 -13 -13 -13 -13 -13 -13 -13 -14
-7 -7 -10 -13 -9 -8 -12 -12 -11 -14 -12 -10 -10 -10 -11 -12 -8 -8 -8 -8 -8 -8 -8 -7 -9 -9 -11 -11 -11 -12 -10 -9 -8 -9 -14 -16 -12 -11 -12 -13 -13 -13 -13 -13 -13 -13 -13 -13 -13 -13 -13 -14 -14 -15
-8 -8 -8 -11 -12 -15 -15 -16 -14 -15 -18 -15 -19 -14 -12 -14 -9 -7 -8 -7 -7 -7 -9 -11 -10 -10 -10 -11 -12 -12 -12 -10 -10 -9 -9 -9 -10 -11 -12 -13 -13 -14 -14 -13 -13 -13 -13 -13 -14 -14 -14 -14 -15 -15
-11 -8 -9 -8 -11 -15 -18 -16 -17 -16 -18 -16 -15 -18 -16 -14 -12 -14 -8 -8 -9 -10 -10 -10 -11 -11 -9 -9 -9 -9 -9 -9 -10 -9 -9 -9 -10 -11 -12 -13 -14 -14 -14 -14 -14 -14 -14 -13 -14 -14 -15 -15 -16 -17
-13 -13 -14 -15 -14 -14 -16 -14 -14 -14 -15 -15 -17 -17 -16 -13 -11 -13 -9 -9 -8 -9 -8 -8 -8 -8 -8 -8 -8 -9 -9 -10 -10 -10 -10 -11 -11 -12 -13 -14 -14 -14 -14 -15 -15 -15 -14 -15 -15 -15 -16 -17 -17 -18
Height
676 676 676 678 683 689 695 700 707 712 716 721 726 730 732 735 738 738 744 743 744 761 767 765 766 770 774 777 784 789 792 794 803 811 812 819 814 804 803 799 797 808 812 825 815 811 806 802 794 797 805 801 800 795
679 679 680 682 684 689 695 702 707 713 718 723 727 731 734 738 740 741 746 750 751 756 768 768 770 770 772 774 781 789 791 792 797 807 812 811 813 822 810 817 804 816 813 816 812 809 801 802 804 804 804 804 801 798
681 683 683 685 688 691 695 702 708 714 720 725 729 733 737 740 743 744 749 753 755 764 771 771 772 772 773 775 777 788 793 792 796 798 812 817 815 817 821 815 816 802 800 811 806 799 800 802 802 804 804 802 802 800
683 685 687 689 690 694 696 701 709 715 721 727 732 736 740 743 747 750 752 757 760 766 778 776 772 773 774 777 779 781 785 789 794 799 811 818 814 807 815 809 816 811 807 810 803 800 799 800 803 806 803 801 801 799
684 686 689 691 693 696 699 703 708 716 722 728 733 738 743 747 750 753 757 760 762 767 777 776 773 773 774 778 781 784 788 792 799 806 814 815 809 807 807 809 820 804 806 812 809 796 799 798 801 805 805 802 799 800
685 687 690 693 696 698 701 704 709 716 723 729 736 741 745 749 753 756 763 765 765 765 773 784 779 775 776 779 782 787 791 795 801 804 810 807 802 805 817 808 794 794 797 799 799 796 797 799 801 804 806 804 803 803
685 688 691 694 697 700 704 708 711 715 722 730 737 743 748 753 756 758 764 764 766 768 776 789 784 779 778 782 787 790 792 796 799 804 807 805 801 803 813 804 789 792 793 796 797 798 801 803 806 805 806 806 806 805
685 689 693 696 699 702 706 709 713 719 725 731 738 746 752 757 760 762 764 765 769 771 776 793 788 784 782 790 792 793 796 797 799 801 804 803 802 803 802 788 786 789 793 795 796 798 801 804 806 808 809 808 807 807
685 689 693 697 701 704 707 711 715 721 727 735 741 751 757 761 764 766 768 770 772 777 786 792 791 795 784 789 792 795 795 803 801 804 801 801 798 795 789 787 789 787 791 799 802 804 806 807 809 812 812 811 810 809
685 690 694 698 702 706 709 713 717 722 726 734 746 753 764 764 766 770 775 778 780 780 782 790 789 792 784 792 799 805 802 804 809 798 796 798 791 796 797 796 798 800 798 800 802 805 809 812 813 814 815 814 814 813
685 690 695 699 703 707 711 714 717 722 726 737 747 756 761 766 767 774 780 788 793 788 785 782 785 786 785 790 797 799 799 797 799 791 794 787 790 794 802 802 804 805 806 808 809 812 814 814 815 815 816 816 816 815
685 691 696 700 704 709 713 716 717 721 728 733 740 754 762 767 775 784 794 789 784 778 781 784 784 783 783 783 788 794 794 795 790 786 784 787 799 803 804 806 809 809 810 812 813 814 816 817 818 818 818 818 818 816
686 691 697 701 705 709 714 717 722 725 730 738 745 756 762 775 779 786 785 778 783 775 776 778 786 781 783 783 787 793 791 792 789 791 794 801 801 804 807 809 811 812 813 814 816 817 819 820 820 820 820 819 819 818
687 693 698 703 707 711 714 720 724 728 730 738 746 755 769 771 773 770 768 769 766 768 769 770 779 778 782 783 779 787 791 785 805 800 786 796 800 803 807 810 811 814 816 817 818 819 821 822 822 822 822 821 821 820
691 697 702 707 710 715 715 720 726 729 730 741 745 760 761 765 765 764 765 766 764 765 764 771 773 776 780 784 778 777 780 777 788 781 798 799 798 803 807 810 813 816 817 818 819 820 822 822 822 823 823 823 823 822
695 702 706 710 714 719 723 727 730 732 735 742 748 753 755 757 758 757 759 760 762 762 765 768 769 776 772 777 771 773 786 798 786 791 792 795 800 804 808 811 814 816 817 818 820 821 822 823 823 824 824 824 824 824
698 702 709 715 719 724 726 732 735 735 738 745 752 756 754 766 759 765 759 760 761 765 770 764 773 767 775 776 768 775 788 794 789 790 796 797 802 806 809 812 814 816 818 819 821 822 822 822 823 823 823 824 824 824
702 708 713 718 723 727 733 733 734 739 750 754 761 759 762 764 766 766 761 760 762 762 762 761 761 763 783 771 782 785 786 791 793 797 799 801 804 807 809 812 815 817 819 820 822 822 822 822 823 823 822 822 823 823
706 712 717 722 726 729 733 736 736 745 754 758 757 760 764 764 761 761 763 763 761 762 763 765 777 777 774 780 778 788 787 791 794 802 803 804 805 808 810 813 816 817 819 820 822 823 824 824 824 824 823 823 823 824
712 717 720 726 731 732 732 737 737 744 757 756 761 764 765 766 764 764 764 762 761 764 766 772 773 776 774 777 776 777 783 787 792 800 806 807 808 809 812 814 816 818 820 821 822 824 825 825 826 826 826 825 825 824
719 723 727 728 730 730 733 740 746 751 755 760 759 759 767 764 764 763 763 763 766 776 777 779 781 773 773 772 773 776 782 785 790 793 799 807 808 810 813 815 817 819 820 822 823 825 825 826 826 827 826 826 826 826
722 725 728 731 731 733 738 741 744 748 753 757 759 759 768 770 772 770 765 769 775 773 772 774 771 773 774 775 775 777 781 786 791 794 799 802 807 810 813 814 816 818 820 822 823 825 826 826 826 827 827 827 827 826
719 720 722 725 733 738 748 744 748 750 758 761 758 761 770 769 766 764 778 771 771 767 767 768 771 773 774 777 778 781 784 787 791 795 799 803 807 809 812 814 816 818 820 822 824 825 825 826 827 827 827 827 826 826
719 724 732 734 738 748 747 748 746 749 755 759 761 761 763 765 766 773 774 776 768 765 766 768 771 775 778 780 782 784 786 788 792 797 800 803 808 811 813 815 818 819 821 822 824 825 826 826 827 827 827 826 826 826
731 741 742 744 745 748 747 749 751 752 758 758 757 763 766 767 779 782 772 769 764 767 768 769 771 773 777 783 784 786 788 790 793 799 802 804 808 813 816 817 819 820 821 822 823 824 825 825 826 826 826 826 826 826
749 750 745 749 751 747 749 754 753 755 757 758 761 766 770 779 775 773 760 764 764 765 766 768 771 776 779 780 784 787 789 792 795 799 803 806 807 810 814 817 819 820 821 822 822 823 823 824 824 825 825 826 826 826
750 752 747 744 744 744 749 753 750 756 764 760 768 774 777 775 778 763 759 757 758 757 760 765 769 772 776 781 784 788 791 794 796 800 803 806 809 810 812 814 816 818 820 821 822 822 823 823 824 824 824 823 824 825
749 750 751 755 752 752 757 760 759 760 757 756 763 771 773 770 759 759 755 754 754 756 760 765 769 772 776 780 784 787 792 795 798 801 804 807 809 810 811 813 815 817 819 820 821 821 822 823 823 823 823 824 825 825
753 753 752 760 762 762 760 756 758 760 759 760 766 768 764 759 756 755 754 753 755 757 761 765 769 772 776 780 784 787 789 792 796 803 807 810 810 811 812 813 815 817 819 820 821 822 823 823 824 824 825 825 825 825
756 754 763 774 766 763 766 763 763 761 758 758 758 759 759 756 754 753 753 754 756 757 759 763 767 770 775 779 784 788 790 792 794 797 802 805 805 808 810 813 815 817 818 820 821 822 823 824 824 825 825 825 826 826
754 755 759 767 770 770 765 762 760 760 760 761 761 762 761 759 753 752 752 753 754 756 759 763 767 769 772 777 780 785 789 791 794 797 799 801 803 806 809 812 814 815 817 819 820 821 822 823 824 825 825 825 825 825
761 759 762 762 766 766 764 766 768 768 768 766 764 764 763 762 761 752 749 751 753 756 757 760 763 767 770 774 778 782 783 787 791 795 797 800 802 805 808 811 813 815 816 818 819 820 821 823 824 824 825 825 825 825
765 766 768 773 771 771 771 769 768 769 768 768 768 765 762 761 758 753 751 750 752 753 756 759 763 766 769 773 777 781 784 787 791 794 797 799 802 805 807 810 813 814 816 817 819 820 821 823 823 824 824 824 824 824
Wind_Speed
4 6 7 12 24 27 26 25 24 24 23 22 21 18 17 16 13 13 13 15 6 3 2 4 2 4 3 3 4 3 3 4 3 3 2 2 2 1 1 1 1 2 1 1 1 1 5 4 3 4 5 8 10 10
5 4 9 8 12 26 27 28 25 24 24 22 22 19 17 16 14 13 8 13 13 5 3 2 2 4 5 3 5 3 3 2 3 3 1 2 1 2 3 2 3 1 4 3 5 4 1 2 0 4 6 6 7 8
5 5 7 12 10 14 24 27 28 26 23 22 21 19 17 14 12 10 13 8 8 3 3 3 3 2 5 3 5 4 1 3 3 3 3 2 1 3 2 3 1 2 2 2 0 3 4 3 1 3 6 4 6 8
7 7 8 9 14 11 14 25 32 30 24 23 20 19 16 14 14 14 11 9 7 4 3 2 4 2 4 10 4 7 9 6 6 3 2 2 2 3 2 2 3 5 1 4 4 1 4 4 1 3 6 5 4 5
9 8 11 11 13 15 13 22 26 31 27 23 21 20 16 17 16 15 15 11 10 5 3 1 5 4 7 13 10 12 12 4 2 2 2 2 1 1 0 2 3 4 6 4 5 3 4 3 4 1 5 7 3 6
12 10 11 13 15 14 17 15 28 27 31 28 25 22 20 19 18 12 3 1 4 5 3 2 4 4 5 13 13 9 8 3 2 3 2 2 3 3 2 2 3 3 3 5 3 4 4 4 5 2 2 3 5 6
14 13 12 13 17 17 17 19 17 26 35 30 24 23 23 20 13 6 4 3 10 4 3 2 2 3 3 6 3 3 3 2 2 2 2 2 2 4 2 3 3 6 4 3 2 4 1 2 3 3 4 5 7 8
18 16 14 16 17 18 18 19 22 23 28 29 28 28 25 18 12 6 5 11 13 7 4 3 1 2 4 2 2 1 2 1 0 2 1 2 0 1 4 6 3 5 7 6 2 5 4 8 8 7 7 4 4 5
21 19 18 18 18 18 19 19 22 29 31 33 34 30 21 6 3 5 14 16 6 4 3 2 3 3 2 2 2 2 2 1 1 2 2 3 2 4 2 2 3 7 4 9 8 9 8 8 6 5 4 5 3 4
23 22 21 21 19 19 19 21 21 29 43 46 34 7 2 5 23 16 4 3 4 3 2 2 1 1 3 1 0 2 1 2 1 4 2 2 3 5 5 7 8 7 7 5 3 3 3 4 3 2 3 4 4 5
26 24 24 22 19 20 19 19 27 40 45 12 3 2 14 20 4 3 2 3 1 2 2 3 4 3 2 3 3 2 3 1 1 3 4 3 2 3 6 10 9 11 11 10 10 9 7 5 2 1 2 4 5 7
28 25 23 22 20 20 20 32 48 23 9 12 19 18 6 3 3 4 2 1 2 3 3 4 4 3 3 2 2 1 3 1 3 3 2 3 0 8 8 8 7 8 9 9 8 8 7 6 5 4 3 4 6 6
29 26 24 22 20 18 21 41 29 30 44 24 6 3 3 0 4 6 7 4 2 3 3 3 1 4 1 1 2 3 3 4 1 1 3 2 5 5 6 7 6 7 8 8 8 8 8 8 7 6 5 6 5 7
30 27 24 22 20 20 41 29 35 31 9 3 3 5 4 4 4 4 4 4 4 3 4 4 2 3 2 3 2 3 3 1 2 1 4 4 7 8 5 5 6 5 6 7 6 7 7 7 7 8 8 7 6 6
30 27 23 20 22 25 28 22 17 8 3 3 3 4 4 2 1 2 2 1 1 2 4 3 2 2 1 3 2 2 2 3 4 3 3 3 8 7 6 5 5 5 6 6 6 7 6 5 6 6 7 6 8 7
30 25 15 22 24 24 26 20 6 3 3 3 4 4 2 3 2 3 3 2 0 3 2 2 2 2 2 3 3 5 5 5 3 2 3 7 7 6 6 5 8 9 8 7 6 5 3 2 3 3 3 4 5 7
21 6 23 24 21 25 24 7 3 2 3 3 3 2 2 3 3 1 1 3 1 2 3 2 5 6 2 2 4 2 4 3 4 5 2 4 6 6 8 10 11 9 8 7 5 2 3 2 2 4 4 2 3 4
12 27 24 22 25 18 11 2 2 3 4 2 3 1 2 1 3 0 0 1 2 1 1 3 2 2 4 5 3 3 2 2 2 3 3 4 11 15 14 12 10 9 9 7 5 4 9 8 5 3 3 4 2 3
30 27 25 29 23 6 3 2 1 3 2 2 2 2 2 1 1 1 1 3 2 3 1 1 3 3 3 3 3 2 5 2 4 2 2 11 17 15 13 12 11 9 7 5 7 7 7 6 6 4 4 6 6 6
27 23 25 30 12 3 2 2 3 4 2 1 2 1 2 2 1 1 0 2 2 2 1 1 3 2 3 3 3 3 4 6 8 5 2 1 13 16 15 13 11 10 9 7 9 8 7 4 3 3 2 3 4 2
22 19 18 12 3 1 3 2 3 2 2 2 2 2 0 2 1 0 0 1 2 2 2 3 2 1 1 1 8 15 14 16 6 4 6 4 11 15 13 10 9 10 9 7 9 9 5 4 3 1 2 1 3 2
7 25 9 10 2 2 3 5 3 2 2 1 1 2 2 1 0 1 1 2 2 3 3 3 2 2 2 3 5 14 19 16 14 16 17 18 4 7 10 11 13 9 12 13 11 9 6 4 3 2 3 3 3 2
6 5 4 4 5 4 1 2 3 1 3 2 1 2 2 1 1 1 1 2 3 3 4 3 6 7 12 12 15 16 18 21 14 16 19 16 16 14 13 14 13 14 11 12 10 7 6 4 4 3 2 2 3 5
7 5 4 3 4 2 1 2 2 2 2 2 2 2 2 2 1 2 3 3 3 2 1 5 13 5 7 9 3 7 12 18 19 18 22 21 14 11 14 15 14 12 10 11 11 8 7 4 5 6 4 4 2 2
4 5 4 3 2 3 2 2 1 2 2 2 2 0 2 2 1 2 3 2 3 1 2 8 7 5 4 2 6 10 15 23 17 12 16 21 19 16 14 13 10 8 6 10 11 11 9 7 7 7 5 5 5 5
4 3 2 2 1 3 3 2 3 3 2 1 1 0 2 2 0 5 3 3 3 3 5 7 6 3 2 11 6 8 16 20 23 16 15 20 23 22 17 13 10 6 8 7 8 7 7 9 8 11 8 7 5 5
1 2 2 1 0 2 2 2 1 3 2 3 3 2 3 2 4 3 1 2 2 9 19 21 18 14 11 14 17 19 20 20 21 16 13 14 18 17 16 20 17 10 9 6 5 6 6 5 4 5 6 7 7 4
2 2 2 2 2 1 3 1 3 4 3 1 3 2 5 7 4 2 3 2 6 15 22 22 21 21 24 23 21 24 21 18 19 18 15 11 8 7 10 13 10 10 8 5 4 4 3 3 3 4 7 8 5 2
1 2 3 2 2 2 2 4 3 1 1 2 4 3 3 2 2 2 1 6 14 20 17 16 15 18 21 23 23 26 27 27 22 6 5 2 4 7 10 10 10 9 10 8 5 4 7 6 6 5 5 4 3 2
2 1 3 1 3 3 3 2 2 2 1 2 2 1 2 2 2 3 7 15 17 15 21 23 23 24 20 22 21 21 25 25 23 19 8 6 14 14 15 12 10 9 10 10 8 7 6 6 7 7 6 5 5 4
1 2 2 2 2 3 3 2 3 1 2 1 2 3 2 2 4 6 15 18 17 22 23 19 20 24 27 23 21 18 14 22 20 14 7 3 11 15 15 12 10 10 10 9 9 7 8 8 9 8 6 4 4 3
2 1 3 1 3 3 3 2 1 0 2 2 2 2 3 3 2 2 6 18 19 15 16 23 22 23 27 27 25 23 8 21 21 15 12 11 14 15 14 12 11 10 9 8 7 8 7 9 8 6 5 4 4 3
2 2 2 2 4 4 3 3 3 4 2 1 3 4 3 4 4 2 4 14 18 21 24 25 25 25 25 21 19 18 10 15 16 14 14 14 14 15 13 13 12 10 9 8 7 8 8 8 7 5 4 3 4 4
Wind_Direction
74 110 102 139 174 177 175 168 169 165 161 157 158 151 150 145 125 113 65 54 88 94 19 29 67 107 83 91 132 198 75 2 51 80 137 210 171 283 55 310 176 161 141 223 285 307 281 1 351 62 310 323 326 326
117 93 148 126 125 177 172 177 170 166 163 160 158 152 147 144 132 109 74 76 71 82 128 54 61 70 75 146 125 39 135 106 154 99 155 104 177 29 162 242 353 265 181 198 185 226 197 103 80 314 316 314 327 314
134 138 112 149 151 144 176 168 171 167 167 162 157 153 146 139 134 121 103 77 67 77 24 65 67 66 166 105 72 111 344 139 70 156 147 159 135 138 174 245 96 286 164 194 39 233 207 171 142 300 308 294 326 329
167 156 149 137 155 164 154 178 172 170 174 171 162 153 145 144 127 129 116 94 79 103 106 267 36 127 184 178 126 82 123 86 97 74 97 129 169 177 218 216 157 202 95 188 258 11 136 205 193 296 304 313 315 350
175 170 165 158 146 161 162 172 173 174 175 175 169 164 154 152 140 124 109 93 77 108 149 208 321 45 148 164 147 127 113 88 78 68 85 214 240 166 349 40 265 185 201 166 228 178 148 145 136 6 330 314 329 31
177 174 174 171 159 154 164 162 175 170 177 172 172 168 158 152 148 123 42 139 114 62 88 74 315 359 112 157 149 134 125 92 97 134 193 247 260 112 128 241 248 224 198 193 200 179 165 127 127 108 18 17 74 56
179 176 172 167 172 162 157 168 166 168 172 165 169 161 154 144 136 81 141 149 161 93 74 39 17 353 80 98 57 72 74 101 118 149 196 200 274 149 170 226 212 192 169 128 145 113 52 22 184 73 105 70 68 54
178 175 172 170 164 164 160 158 168 164 164 162 161 150 141 139 108 68 64 137 147 87 65 99 296 52 24 87 90 23 105 113 359 175 76 192 287 171 246 242 286 150 125 90 121 63 97 108 86 61 56 50 46 19
175 173 171 169 166 164 160 159 162 165 155 155 143 134 124 119 67 93 103 123 96 75 110 83 132 200 30 69 94 41 74 108 4 183 235 123 202 223 301 165 105 143 138 118 84 81 76 89 83 61 45 26 7 1
175 172 171 170 169 167 164 161 160 162 142 130 123 85 107 144 122 115 93 38 11 346 46 155 132 181 137 101 15 81 37 186 177 234 131 193 244 85 44 80 77 46 70 110 117 105 87 101 126 87 44 13 16 350
176 173 172 170 168 167 166 170 165 146 134 129 114 94 132 135 103 43 89 91 311 4 184 223 191 139 225 127 179 197 174 169 231 242 155 215 246 105 92 82 72 69 71 77 95 96 80 83 95 87 43 17 12 359
172 172 170 171 172 169 170 145 147 140 124 141 119 113 109 74 58 88 115 321 195 226 182 159 203 187 161 144 127 203 159 163 254 149 219 248 177 127 118 105 92 92 91 90 92 94 85 81 77 76 53 40 27 22
170 169 166 169 172 174 171 162 154 127 120 115 79 86 104 89 98 156 181 204 225 201 188 163 150 143 104 125 123 114 160 219 32 167 239 231 133 140 128 127 111 100 97 93 88 91 84 76 69 74 62 42 43 41
167 166 165 168 168 161 155 151 147 133 132 86 123 129 141 178 214 189 171 178 223 150 148 143 110 152 170 158 147 112 223 173 18 257 233 164 165 153 138 132 127 105 88 90 84 91 94 86 81 71 68 61 50 43
163 163 159 162 161 162 168 158 147 111 87 109 124 136 184 198 177 193 187 70 116 176 133 82 66 104 126 111 191 163 184 229 204 232 201 170 141 139 135 135 125 121 121 106 99 104 94 82 63 64 58 62 59 79
155 147 154 158 154 154 168 157 126 18 60 75 60 105 108 110 137 151 170 164 135 142 67 71 123 98 220 146 147 205 157 219 233 176 146 132 128 123 125 126 139 146 146 139 115 106 107 93 57 50 66 95 74 64
142 123 156 155 154 148 162 141 165 78 78 70 98 44 102 103 144 198 87 174 94 117 157 135 160 197 130 142 186 190 204 213 161 140 104 118 136 139 135 138 145 144 139 141 130 95 339 285 3 8 347 29 63 75
120 138 146 148 140 136 165 330 66 80 77 79 114 145 80 101 130 66 358 4 116 110 90 205 131 159 166 166 231 197 138 104 78 130 128 113 129 146 148 148 151 156 155 153 134 78 88 90 89 57 23 120 272 212
139 140 143 146 146 146 144 180 92 96 83 130 82 39 127 148 85 76 54 285 183 119 125 160 103 171 207 207 163 166 149 154 141 138 119 146 151 154 156 155 150 156 158 162 163 136 111 85 72 51 107 73 87 131
141 152 135 149 153 178 115 29 78 90 116 149 90 66 121 155 232 128 351 2 66 85 20 142 203 209 177 222 181 140 138 133 131 119 98 92 152 151 151 153 152 146 131 133 156 154 146 125 115 87 85 42 44 77
139 148 154 165 235 55 81 79 57 117 153 121 170 89 57 20 59 52 37 355 73 168 208 212 207 194 116 155 151 131 138 148 158 152 161 160 170 171 165 169 170 169 156 149 150 164 181 187 172 179 339 38 35 87
143 175 169 188 145 75 80 29 108 107 72 106 88 119 104 113 217 260 182 59 229 228 187 171 165 139 124 101 112 150 153 144 141 140 145 144 119 137 160 173 163 164 176 171 175 178 192 220 199 212 260 289 311 303
136 144 85 55 72 52 339 165 78 103 114 205 128 76 348 65 225 94 32 226 248 229 184 136 142 141 120 117 125 134 154 151 135 145 150 152 156 162 162 168 176 158 160 182 183 188 189 187 216 219 242 278 296 237
39 54 47 53 68 103 14 45 86 93 67 110 139 167 155 163 62 57 248 241 247 154 107 136 132 108 100 111 88 131 142 159 141 143 156 144 137 144 165 163 170 170 172 176 192 199 196 204 213 224 257 255 254 271
68 348 70 26 355 84 81 67 80 83 134 176 111 103 214 80 107 246 235 260 161 149 141 144 141 139 129 106 123 138 151 152 140 140 154 160 145 133 131 139 147 160 175 200 198 206 207 216 224 226 239 220 256 249
63 295 87 168 297 105 159 122 172 163 130 125 181 63 50 94 56 246 246 195 193 164 172 169 154 129 119 151 146 148 163 166 159 144 162 172 169 164 159 153 152 165 181 199 199 188 202 219 229 229 238 238 241 249
127 287 313 354 61 99 59 8 74 107 146 171 187 123 85 211 248 253 274 209 174 188 181 174 166 162 159 158 161 162 164 170 173 164 163 181 199 201 197 186 189 191 185 187 205 212 213 212 222 228 234 244 205 185
192 122 152 267 61 20 141 131 144 188 207 191 95 168 184 199 237 237 221 206 209 176 178 180 181 179 174 171 164 161 157 152 141 140 140 135 145 171 204 217 201 182 183 181 175 184 191 184 177 162 150 146 144 152
34 320 88 29 5 24 191 180 210 241 203 136 157 223 236 238 230 256 308 182 167 156 141 139 146 169 168 165 166 170 167 161 145 122 127 166 156 161 160 170 174 174 177 165 142 120 162 154 145 152 164 176 178 176
294 65 90 61 139 233 251 167 217 258 262 195 152 7 334 294 251 266 190 172 161 160 166 170 170 163 153 155 158 169 179 186 195 181 168 191 196 180 176 179 183 185 184 189 182 165 162 164 161 155 153 164 191 206
339 72 80 104 224 249 237 282 312 272 26 23 351 151 232 289 294 222 204 197 188 174 163 154 162 171 164 164 166 168 186 198 198 194 189 182 188 180 179 184 187 187 186 191 196 194 187 189 197 189 184 186 193 222
37 135 141 248 286 297 9 56 313 344 327 30 296 20 1 27 285 282 214 198 180 170 178 173 169 179 188 190 190 188 215 200 195 201 204 199 182 176 178 183 183 183 183 184 186 189 183 181 180 195 209 224 243 259
47 50 68 65 4 354 313 55 359 329 346 318 270 198 206 180 235 283 346 211 202 191 192 195 195 193 190 192 191 184 163 177 178 173 168 169 174 174 179 182 181 181 176 170 168 174 176 183 189 197 209 237 258 273